Regional Weather Roundup
Issued by NWS

Home | Current Version | Previous Version | Graphics & Text | Print | Product List | Glossary On
Versions: 1 2 3 4 5 6 7 8 9 10 11 12 13 14 15 16 17 18 19 20 21 22 23 24 25 26 27 28 29 30 31 32 33 34 35 36 37 38 39 40 41 42 43 44 45 46 47 48 49 50
000
ASUS45 KSLC 012210
RWRUT

UTAH REGIONAL WEATHER ROUNDUP
NATIONAL WEATHER SERVICE SALT LAKE CITY UT
400 PM MDT WED OCT 01 2014

UTZ001>011-023>025-012300-

NORTHERN UTAH

CITY           SKY/WX    TMP DP  RH WIND       PRES   REMARKS
HILL AFB       PTSUNNY   53  34  49 NW7       30.11R
LOGAN          NOT AVBL
OGDEN          MOSUNNY   53  36  52 NW8       30.10S
PROVO AIRPORT  MOSUNNY   55  36  47 NW14      30.10S
SALT LAKE CITY LGT RAIN  53  39  59 NW8       30.11R
VERNAL         MOSUNNY   53  32  44 NW14G23   30.00S
WENDOVER       MOSUNNY   61  28  29 N15       30.13S
HEBER CITY     PTSUNNY   54  34  47 SW14      30.08S
WEST JORDAN    MOSUNNY   54  37  54 NW16      30.12R

$$

UTZ012>022-026-027-012300-

SOUTHERN UTAH

CITY           SKY/WX    TMP DP  RH WIND       PRES   REMARKS
BRYCE CANYON   SUNNY     49  26  41 NW18G25   30.12R
CEDAR CITY     MOSUNNY   57  29  34 N17G23    30.10S
MILFORD        MOSUNNY   56  30  37 N16G22    30.11S
MOAB/CYNLANDS  MOSUNNY   59  42  53 NW9       29.97R
PRICE          MOSUNNY   54  21  27 NW18G28   30.03S
ST GEORGE      PTCLDY    75  36  23 NE9G17    29.97R
KANAB            N/A     68  27  21 W13G20    30.02R

$$

REGIONAL REPORTS     COLORADO/ARIZONA

CITY           SKY/WX    TMP DP  RH WIND       PRES   REMARKS
CRAIG, CO      CLOUDY    41  36  82 W6        30.07R
GRAND JUNCTION RAIN      50  46  86 SW16G22   29.99R FOG
RIFLE          MOSUNNY   52  41  66 SW5       29.98R
MONTROSE       LGT RAIN  48  42  80 N14       30.03R
CORTEZ         CLOUDY    59  42  53 E5        29.99S
PAGE, AZ       PTSUNNY   72  36  26 CALM      29.92S
GRAND CANYON   MOSUNNY   63  36  36 W10G18    30.06S
KINGMAN        SUNNY     80  35  19 N15       29.93S
FLAGSTAFF      PTSUNNY   62  32  32 W8        30.07R

$$

REGIONAL REPORTS    NEVADA/IDAHO/WYOMING

CITY           SKY/WX    TMP DP  RH WIND       PRES   REMARKS
LAS VEGAS, NV  MOSUNNY   83  27  13 NE10G18   29.87S
ELY            SUNNY     55  17  22 N8        30.15S
ELKO           MOSUNNY   57  24  28 CALM      30.16S
POCATELLO, ID  LGT RAIN  51  39  63 W13       30.12R
BURLEY         SUNNY     57  30  35 W15G23    30.11S
EVANSTON, WY   MOSUNNY   43  31  62 SW12      30.10S
ROCK SPRINGS   CLOUDY    45  32  60 W17       30.04R

$$



USA.gov is the U.S. government's official web portal to all federal, state and local government web resources and services.